EHI
8 6 7 8 8 8 8 5 3 2 2 1 1 2 3 3 2 2 3 7 11 11 11 12 13 9 4 2 2 3 2 1 1 1 0 0 0 0 0 0 0 0 0
11 10 9 10 8 8 8 6 4 4 4 3 3 4 5 6 5 4 4 7 9 9 9 10 11 9 5 3 4 2 1 1 1 1 0 0 0 0 0 0 0 0 0
15 13 12 11 9 8 8 8 7 8 7 7 6 6 7 7 7 7 6 6 7 7 8 9 9 9 7 5 4 2 1 0 1 1 0 0 1 1 1 0 0 0 0
14 13 13 12 10 8 9 10 10 10 10 10 10 8 7 7 6 5 4 5 6 7 8 9 8 6 6 5 4 2 1 1 1 1 1 1 1 2 1 0 0 0 0
9 10 12 12 10 9 10 11 11 12 13 12 10 9 6 5 5 3 1 2 5 7 7 7 6 4 2 3 3 2 1 1 2 3 2 2 2 2 1 0 0 0 0
5 6 8 9 10 9 10 10 11 13 14 12 8 6 5 4 4 3 2 2 3 4 3 4 5 3 1 1 3 3 2 1 2 4 4 3 2 2 1 0 0 0 0
2 3 4 6 8 9 9 10 12 13 12 12 9 6 4 3 3 5 5 5 4 3 2 3 5 5 3 2 2 4 4 2 1 4 6 4 1 1 1 0 0 0 0
2 3 4 5 7 8 9 11 12 11 11 12 12 9 4 2 2 4 5 5 5 4 4 4 5 6 6 5 3 2 3 2 1 2 5 4 2 0 0 0 0 0 0
3 4 3 3 5 6 7 9 10 9 9 10 11 9 5 3 2 3 2 3 4 5 5 5 4 4 5 5 4 2 1 1 0 1 3 3 2 1 1 1 1 1 0
2 2 2 3 4 4 5 6 6 6 7 7 7 7 6 4 4 2 0 1 2 3 4 4 2 1 1 3 4 2 0 0 0 0 1 2 2 2 2 2 2 2 1
3 3 3 3 3 3 3 4 4 4 4 5 5 6 6 6 5 3 1 1 1 1 2 3 2 1 1 2 3 2 0 0 0 0 1 1 1 2 2 2 2 2 1
3 4 4 4 3 3 3 3 4 3 3 3 4 5 7 6 5 4 3 2 2 1 2 2 2 2 2 3 2 1 0 0 0 0 0 0 0 1 1 1 0 1 2
1 1 2 3 2 1 2 3 3 3 3 3 3 5 6 4 3 3 3 3 3 3 2 3 3 3 3 3 2 1 0 0 0 0 0 0 0 0 0 0 0 1 2
0 0 0 1 1 1 2 2 1 1 2 2 2 3 3 2 1 1 1 1 2 2 2 3 3 3 2 2 1 0 0 0 0 0 0 0 0 0 0 0 0 0 1
0 0 0 1 2 2 2 2 1 1 1 1 1 1 1 1 0 0 0 0 0 1 1 1 2 2 1 0 0 0 0 0 0 0 0 0 0 0 0 0 0 0 0
0 0 1 2 3 2 1 1 0 0 1 1 1 0 0 0 0 0 0 0 0 0 0 1 1 1 0 0 0 0 0 0 0 0 0 0 0 0 0 0 0 0 0
1 1 1 2 2 1 0 0 0 0 0 1 1 0 0 0 0 0 0 0 0 0 0 0 0 0 0 0 0 0 0 0 0 0 0 0 0 0 0 0 0 0 0
2 2 2 2 1 0 0 0 0 0 0 1 1 0 0 0 0 0 0 0 0 0 0 0 0 0 0 0 0 0 0 0 0 0 0 0 0 0 0 0 0 0 0
3 3 2 1 0 0 0 0 0 0 0 0 0 0 0 0 0 0 0 0 0 0 0 0 0 0 0 0 0 0 0 0 0 0 0 0 0 0 0 0 0 0 0
1 2 1 0 0 0 0 0 0 0 0 0 0 0 0 0 0 0 0 0 0 0 0 0 0 0 0 0 0 0 0 0 0 0 0 0 0 0 0 0 0 0 0
0 0 0 0 0 0 0 0 0 0 0 0 0 0 0 0 0 0 0 0 0 0 0 0 0 0 0 0 0 0 0 0 0 0 0 0 0 0 0 0 0 0 0
0 0 0 0 0 0 0 0 0 0 0 0 0 0 0 0 0 0 0 0 0 0 0 0 0 0 0 0 0 0 0 0 0 0 0 0 0 0 0 0 0 0 0
0 0 0 0 0 0 0 0 0 0 0 0 0 0 0 0 0 0 0 0 0 0 0 0 0 0 0 0 0 0 0 0 0 0 0 0 0 0 0 0 0 0 0
0 0 0 0 0 0 0 0 0 0 0 0 0 0 0 0 0 0 0 0 0 0 0 0 0 0 0 0 0 0 0 0 0 0 0 0 0 0 0 0 0 0 0
0 0 0 0 0 0 0 0 0 0 0 0 0 0 0 0 0 0 0 0 0 0 0 0 0 0 0 0 0 0 0 0 0 0 0 0 0 0 0 0 0 0 0
0 0 0 0 0 0 0 0 0 0 0 0 0 0 0 0 0 0 0 0 0 0 0 0 0 0 0 0 0 0 0 0 0 0 0 0 0 0 0 0 0 0 0
Wind_Speed
1 1 1 1 2 2 2 3 4 4 5 6 7 7 7 7 7 6 3 6 7 8 10 11 11 12 13 13 13 13 13 13 12 11 11 10 10 9 9 9 9 8 8
0 1 1 1 2 2 3 3 4 4 5 5 6 6 7 6 6 7 7 4 8 8 9 10 10 10 11 11 12 13 13 13 13 12 12 11 11 10 9 9 9 9 8
1 0 1 1 1 2 3 4 4 4 4 4 5 5 5 5 6 6 6 6 5 8 8 7 8 9 10 11 12 13 13 13 13 13 13 13 12 11 10 10 9 9 9
1 1 1 1 2 2 3 3 4 4 4 4 4 4 3 3 5 5 6 5 5 4 5 6 7 8 9 11 11 12 13 13 13 13 13 13 13 12 11 10 10 9 9
2 1 1 1 2 2 3 4 3 3 4 4 4 3 3 3 4 4 5 5 4 4 4 3 5 6 7 9 10 11 12 12 12 12 12 12 12 12 11 11 10 10 10
3 3 1 2 3 2 2 3 3 3 4 3 4 3 3 3 3 2 3 3 3 4 4 4 3 4 6 6 7 9 10 11 11 11 13 12 12 12 12 11 10 10 10
4 3 3 2 2 2 3 4 3 4 3 3 4 4 3 2 1 1 2 2 3 3 3 3 2 2 2 3 5 6 7 8 8 10 11 12 12 12 12 11 11 10 9
4 2 3 2 3 2 3 3 3 3 2 2 3 4 3 3 2 0 1 1 2 2 3 3 2 2 2 2 0 3 4 5 6 8 9 9 10 11 11 11 11 10 10
4 4 3 3 3 3 2 3 3 3 3 2 3 4 4 3 0 1 1 2 3 3 3 3 4 4 3 3 2 1 2 2 4 6 7 9 10 11 11 11 11 11 11
5 4 4 4 4 3 3 3 2 3 3 3 2 3 4 4 3 1 1 2 3 4 4 3 4 4 4 3 5 6 4 3 3 5 6 7 8 9 10 11 11 11 12
4 4 4 4 3 3 3 4 3 3 2 3 2 2 3 3 4 3 1 1 2 3 3 4 3 3 4 4 4 7 9 7 5 5 6 7 9 10 10 10 11 11 11
3 5 5 4 4 3 3 3 3 2 2 3 3 2 2 2 2 2 2 1 1 1 3 4 3 3 4 4 6 11 10 10 10 9 8 9 10 10 10 10 10 10 10
4 5 5 4 4 4 3 3 3 3 3 2 2 2 2 2 2 2 2 1 1 1 2 3 4 4 4 4 5 10 11 12 11 11 11 11 11 11 11 11 10 10 10
5 5 4 4 4 4 3 3 2 2 2 2 2 2 2 2 1 2 2 2 2 2 2 3 3 4 4 4 6 6 8 12 12 11 11 10 10 10 10 10 10 10 9
4 5 5 4 4 4 4 3 3 3 3 3 3 2 2 2 1 1 1 2 2 2 2 2 2 3 3 4 5 5 7 11 11 11 10 9 10 10 10 9 9 9 9
5 5 5 5 5 4 4 4 4 4 3 3 3 3 3 2 2 1 0 0 0 2 3 3 3 3 4 5 7 7 7 10 10 9 8 8 8 8 8 8 8 8 8
5 5 5 5 5 5 5 5 5 4 4 5 4 4 4 4 2 2 2 2 2 3 5 4 3 3 4 5 5 5 5 5 6 8 7 7 6 6 6 7 7 7 7
5 6 6 6 7 7 6 6 6 6 6 6 6 5 5 4 4 3 3 3 3 4 6 7 5 4 5 5 5 5 5 5 5 7 6 5 5 5 5 5 5 5 5
6 6 6 7 7 7 7 7 7 7 7 7 6 6 6 5 5 4 4 4 5 5 5 6 6 4 4 4 5 5 6 4 4 6 5 4 4 4 3 4 4 4 4
6 6 7 7 7 8 8 7 7 7 8 8 8 8 7 7 6 5 5 6 6 6 7 7 7 5 5 5 4 5 5 3 3 4 4 4 5 5 5 4 5 5 4
7 6 7 7 7 7 8 8 6 7 8 8 9 9 10 10 10 7 5 5 5 5 6 6 6 6 5 4 4 3 4 4 3 2 2 3 4 4 5 7 7 6 6
6 6 7 8 8 8 9 10 8 7 8 9 9 9 9 9 10 10 11 10 7 6 6 5 6 6 5 4 3 2 3 3 3 2 1 2 2 2 2 2 6 6 6
6 7 7 7 8 9 9 9 9 6 8 8 8 8 8 8 7 9 9 10 11 9 6 5 7 6 5 4 2 3 2 2 3 1 1 1 1 1 2 4 8 6 6
6 6 7 7 7 8 9 8 7 6 8 8 9 9 8 9 9 7 9 10 10 9 7 6 6 5 5 3 1 2 2 3 3 2 1 1 1 1 1 2 8 8 8
6 6 6 7 7 7 9 9 8 5 7 8 8 9 8 9 9 7 7 9 9 8 8 8 7 6 5 3 3 1 1 1 2 2 0 1 1 1 2 3 6 11 10
5 5 6 6 6 6 7 9 9 3 5 6 7 8 11 9 8 8 6 7 8 7 6 6 6 5 4 3 1 2 3 2 1 1 2 2 2 2 2 2 2 4 7
Wind_Direction
218 215 230 282 281 284 257 260 264 266 266 259 257 256 262 265 268 267 241 179 215 240 243 239 232 228 226 224 220 215 212 210 208 206 203 202 202 201 198 197 194 191 192
162 280 278 305 304 302 309 289 276 267 264 271 267 267 267 268 264 267 268 228 209 229 240 240 238 233 229 228 225 219 214 211 208 204 203 203 202 203 201 200 198 195 192
122 250 325 304 325 306 295 283 281 273 263 260 261 262 264 272 276 274 274 274 249 218 225 237 240 236 232 230 228 222 216 212 210 207 207 204 202 202 202 202 201 197 190
34 333 330 348 327 307 299 289 281 284 282 276 271 268 269 272 276 275 274 275 284 279 227 223 237 240 235 233 231 225 221 216 213 211 211 208 203 201 201 201 202 195 190
30 2 8 2 299 296 298 300 302 293 284 281 271 266 275 274 275 277 283 284 284 286 280 236 222 235 240 237 234 228 223 219 215 213 213 211 207 203 201 201 202 196 191
29 359 10 0 318 305 304 306 294 281 279 281 281 280 274 274 279 292 294 293 296 292 288 290 257 230 231 232 227 227 224 217 216 214 215 214 208 201 199 198 200 197 192
33 15 1 1 330 325 313 297 283 268 266 279 271 261 240 227 258 309 308 313 319 319 323 322 312 303 254 220 219 219 217 211 213 208 209 211 208 203 199 199 195 191 185
21 19 7 339 343 328 321 316 298 285 278 267 280 279 253 220 165 55 346 356 358 353 359 357 2 3 329 307 245 205 211 205 206 200 197 197 196 193 190 187 185 177 167
25 14 5 351 343 330 333 324 311 289 286 276 280 286 286 281 322 128 62 39 34 22 13 11 16 16 10 7 351 91 162 166 179 182 188 191 188 188 185 179 169 162 159
22 16 8 7 349 344 346 327 342 308 290 281 272 274 287 299 277 224 136 69 43 26 19 19 13 18 19 24 44 57 84 123 141 147 150 154 165 169 165 158 154 153 147
31 20 18 14 360 357 1 348 342 321 304 297 288 288 280 279 263 264 238 128 66 33 27 27 22 23 30 35 48 62 67 71 91 117 126 132 135 139 142 142 142 143 144
43 30 25 18 10 8 6 354 341 342 330 317 307 303 285 274 268 258 241 193 104 52 45 35 31 33 35 36 54 67 67 68 72 84 99 114 123 130 133 135 139 143 142
38 26 19 16 15 10 1 358 0 358 349 342 327 314 300 286 284 265 227 190 151 85 67 47 32 35 46 50 62 73 75 73 72 78 85 93 99 105 112 115 122 127 129
36 22 18 21 16 10 8 1 8 11 7 355 344 326 298 297 291 260 228 185 160 128 80 67 44 36 57 66 67 71 82 80 77 78 82 88 95 101 104 106 111 113 117
40 33 27 27 24 21 17 7 30 25 19 8 5 354 336 345 310 270 244 237 201 156 113 86 69 41 63 76 73 80 80 81 81 81 83 86 92 99 103 106 107 110 115
42 38 37 36 36 35 34 28 44 38 37 32 24 24 13 18 28 33 196 287 249 134 116 90 84 84 84 89 79 78 84 91 82 82 88 96 99 104 110 114 117 120 124
40 41 41 44 44 42 41 43 41 40 42 43 38 43 40 26 33 46 72 90 105 116 121 109 94 96 91 90 89 85 88 91 92 89 91 98 107 113 118 124 130 137 142
46 48 45 47 46 44 40 42 44 43 44 43 40 42 41 48 51 56 73 91 97 105 122 120 112 104 97 101 100 97 93 92 96 101 98 98 105 114 126 140 147 151 158
53 51 48 50 50 47 46 45 47 48 47 44 41 42 45 51 59 71 83 99 103 107 112 118 116 112 112 115 116 108 102 100 110 121 135 143 137 138 147 156 158 161 171
58 56 55 53 52 49 45 46 50 51 50 51 50 50 47 50 59 79 92 100 109 116 121 120 119 121 118 121 124 121 117 115 111 128 124 137 151 174 181 179 177 181 190
60 56 57 56 52 50 36 28 48 58 56 57 56 58 58 56 48 48 71 89 105 114 117 116 116 118 115 121 111 115 119 128 121 126 150 155 165 182 180 195 200 199 208
61 57 56 57 53 47 24 17 18 58 56 58 58 61 72 68 72 70 66 63 64 88 98 106 107 110 110 109 113 124 131 140 121 114 219 169 171 190 202 181 150 177 210
68 64 61 60 60 47 26 23 14 46 59 57 55 55 61 65 66 82 92 94 77 66 68 91 105 107 111 105 106 107 81 64 65 97 254 213 188 208 219 131 149 189 215
69 66 62 65 65 51 26 21 3 59 65 63 58 56 60 62 50 49 80 81 79 69 60 70 81 82 84 76 76 105 139 162 167 157 260 271 253 264 269 165 171 201 221
73 71 66 65 63 55 27 12 353 72 73 70 64 56 55 66 32 18 83 90 88 89 85 80 76 84 77 52 351 290 191 206 149 124 142 305 302 282 252 225 185 199 219
88 84 76 65 60 59 36 15 351 53 73 82 83 79 60 45 25 14 64 81 85 84 93 110 118 143 141 136 223 319 331 339 16 88 70 314 311 302 281 255 248 215 224